DW5406 Weather Reports


time (UTC)temp
C
wind
direction
speed
KPH
gust
KPH
rain 1hr
cm
rain 24hr
cm
rain mn
cm
humidity
%
barometer
mb
20190820200510 15 283 0.0 0.0 0.00 0.00 0.00 72 1024.1
20190820193510 16 283 0.0 0.0 0.00 0.00 0.00 69 1023.8
20190820185010 17 283 0.0 0.0 0.00 0.00 0.00 59 1023.4
20190820183510 17 283 0.0 0.0 0.00 0.00 0.00 56 1023.2
20190820165011 19 288 0.0 3.2 0.00 0.00 0.00 49 1022.0
20190820160509 20 262 0.0 0.0 0.00 0.00 0.00 50 1022.0
20190820150509 20 301 0.0 0.0 0.00 0.00 0.00 49 1022.0
20190820135011 20 237 0.0 1.6 0.00 0.00 0.00 57 1021.6
20190820132010 20 273 3.2 12.9 0.00 0.00 0.00 57 1021.7
20190820130510 20 256 0.0 1.6 0.00 0.00 0.00 56 1021.4
20190820122011 20 292 1.6 4.8 0.00 0.00 0.00 55 1021.4
20190820115011 20 256 0.0 1.6 0.00 0.00 0.00 59 1021.3
20190820113511 20 264 0.0 1.6 0.00 0.00 0.00 57 1021.6
20190820103511 19 250 0.0 0.0 0.00 0.00 0.00 53 1021.8
20190820102010 20 269 0.0 0.0 0.00 0.00 0.00 54 1021.7
20190820093510 18 269 0.0 1.6 0.00 0.00 0.00 71 1021.4
20190820092010 17 269 0.0 3.2 0.00 0.00 0.00 74 1021.4
20190820085011 17 269 0.0 0.0 0.00 0.00 0.00 75 1021.2
20190820083510 16 269 0.0 0.0 0.00 0.00 0.00 75 1021.4
20190820080510 16 269 0.0 0.0 0.00 0.00 0.00 72 1021.4
20190820073510 16 269 0.0 0.0 0.00 0.00 0.00 76 1021.1
20190820072012 16 269 0.0 0.0 0.00 0.00 0.00 79 1021.3
20190820070510 14 269 0.0 0.0 0.00 0.00 0.00 85 1021.2
20190820065011 13 269 0.0 0.0 0.00 0.00 0.00 87 1021.2
20190820055010 10 269 0.0 0.0 0.00 0.00 0.00 94 1020.5
20190820053511 10 269 0.0 0.0 0.00 0.00 0.00 94 1020.6
20190820050511 9 269 0.0 0.0 0.00 0.00 0.00 93 1020.4
20190820040511 10 269 0.0 0.0 0.00 0.00 0.00 92 1020.2
20190820025011 10 269 0.0 0.0 0.00 0.00 0.00 92 1019.9
20190820022011 10 269 0.0 0.0 0.00 0.00 0.00 91 1019.9
20190820020510 11 269 0.0 0.0 0.00 0.00 0.00 91 1019.7
20190820013511 11 269 0.0 0.0 0.00 0.00 0.00 91 1019.5
20190820012011 11 269 0.0 0.0 0.00 0.00 0.00 90 1019.5
20190820010510 11 269 0.0 0.0 0.00 0.00 0.00 90 1019.5
20190820000511 12 269 0.0 0.0 0.00 0.00 0.00 87 1019.4
20190819235011 12 269 0.0 0.0 0.00 0.00 0.00 87 1019.4
20190819215010 13 269 0.0 0.0 0.00 0.00 0.00 79 1018.4
20190819212010 15 270 0.0 0.0 0.00 0.00 0.00 76 1018.1
20190819210510 15 269 0.0 0.0 0.00 0.00 0.00 75 1017.9
20190819205015 15 269 0.0 0.0 0.00 0.00 0.00 74 1017.9